This demonstration page uses our WeatherBlox Daily Observations layout. Learn more.

Hourly Observations for March 24, 2019

Temp ( °F °C ) Dew Point ( °F °C ) Humidity (%) Winds ( mph kmh ) Pressure ( in mb ) Visibility ( mi km ) Precip ( " mm )
12:15 am 00:15 Clear 41 5 23 -5 49 49 Calm 30.3 1026 10 16.09344 0 0
12:35 am 00:35 Clear 37 3 23 -5 56 56 Calm 30.3 1026 10 16.09344 0 0
12:55 am 00:55 Clear 39 4 23 -5 52 52 N 3 6 30.3 1026 10 16.09344 0 0
1:15 am 01:15 Clear 34 1 25 -4 70 70 NNW 7 11 30.3 1026 10 16.09344 0 0
1:35 am 01:35 Clear 41 5 23 -5 49 49 NW 7 11 30.3 1026 10 16.09344 0 0
1:55 am 01:55 Clear 36 2 27 -3 70 70 NNW 10 17 30.3 1026 10 16.09344 0 0
2:15 am 02:15 Clear 37 3 25 -4 60 60 Calm 30.3 1026 10 16.09344 0 0
2:35 am 02:35 Clear 39 4 23 -5 52 52 Calm 30.3 1026 10 16.09344 0 0
2:55 am 02:55 Clear 41 5 21 -6 45 45 Calm 30.3 1026 10 16.09344 0 0
3:15 am 03:15 Clear 41 5 23 -5 49 49 Calm 30.3 1026 10 16.09344 0 0
3:35 am 03:35 Clear 37 3 23 -5 56 56 S 6 9 30.3 1026 10 16.09344 0 0
3:55 am 03:55 Clear 34 1 27 -3 75 75 SSW 3 6 30.3 1026 10 16.09344 0 0
4:15 am 04:15 Clear 36 2 25 -4 65 65 SSW 3 6 30.3 1026 10 16.09344 0 0
4:35 am 04:35 Clear 32 0 27 -3 80 80 Calm 30.3 1026 10 16.09344 0 0
4:55 am 04:55 Clear 32 0 27 -3 80 80 SSW 3 6 30.3 1026 10 16.09344 0 0
5:15 am 05:15 Clear 32 0 28 -2 87 87 Calm 30.3 1026 10 16.09344 0 0
5:35 am 05:35 Clear 34 1 27 -3 75 75 Calm 30.3 1026 10 16.09344 0 0
5:55 am 05:55 Clear 34 1 27 -3 75 75 S 7 11 30.3 1026 10 16.09344 0 0
6:15 am 06:15 Clear 32 0 27 -3 80 80 Calm 30.3 1026 10 16.09344 0 0
6:35 am 06:35 Clear 32 0 27 -3 80 80 SSW 3 6 30.33 1027 10 16.09344 0 0
6:55 am 06:55 Clear 32 0 25 -4 75 75 WSW 5 7 30.33 1027 10 16.09344 0 0
7:15 am 07:15 Sunny 32 0 25 -4 75 75 W 3 6 30.33 1027 10 16.09344 0 0
7:35 am 07:35 Sunny 32 0 27 -3 80 80 Calm 30.33 1027 10 16.09344 0 0
7:55 am 07:55 Sunny 32 0 27 -3 80 80 Calm 30.33 1027 10 16.09344 0 0
8:15 am 08:15 Sunny 36 2 28 -2 75 75 Calm 30.33 1027 10 16.09344 0 0
8:35 am 08:35 Sunny 39 4 27 -3 61 61 Calm 30.33 1027 10 16.09344 0 0
8:55 am 08:55 Sunny 41 5 28 -2 61 61 Calm 30.33 1027 10 16.09344 0 0
9:15 am 09:15 Sunny 45 7 27 -3 49 49 Calm 30.33 1027 10 16.09344 0 0
9:35 am 09:35 Sunny 46 8 27 -3 46 46 SSE 3 6 30.33 1027 10 16.09344 0 0
9:55 am 09:55 Sunny 50 10 28 -2 43 43 S 5 7 30.33 1027 10 16.09344 0 0
10:15 am 10:15 Sunny 52 11 27 -3 38 38 S 5 7 30.33 1027 10 16.09344 0 0
10:35 am 10:35 Sunny 52 11 27 -3 38 38 S 5 7 30.33 1027 10 16.09344 0 0
10:55 am 10:55 Sunny 54 12 27 -3 35 35 SW 6 9 30.33 1027 10 16.09344 0 0
11:15 am 11:15 Sunny 55 13 27 -3 33 33 WSW 6 9 30.27 1025 10 16.09344 0 0
11:35 am 11:35 Sunny 57 14 25 -4 29 29 SW 3 6 30.27 1025 10 16.09344 0 0
11:55 am 11:55 Sunny 59 15 27 -3 29 29 S 7 11 30.27 1025 10 16.09344 0 0
12:15 pm 12:15 Sunny 61 16 27 -3 27 27 WSW 5 7 30.24 1024 10 16.09344 0 0
12:35 pm 12:35 Sunny 61 16 27 -3 27 27 S 8 13 30.24 1024 10 16.09344 0 0
12:55 pm 12:55 Sunny 61 16 28 -2 29 29 Calm 30.24 1024 10 16.09344 0 0
1:15 pm 13:15 Sunny 63 17 25 -4 24 24 S 6 9 30.21 1023 10 16.09344 0 0
1:35 pm 13:35 Sunny 63 17 25 -4 24 24 SW 5 7 30.21 1023 10 16.09344 0 0
1:55 pm 13:55 Sunny 63 17 25 -4 24 24 S 5 7 30.18 1022 10 16.09344 0 0
2:15 pm 14:15 Sunny 63 17 27 -3 25 25 WSW 6 9 30.18 1022 10 16.09344 0 0
2:35 pm 14:35 Sunny 63 17 25 -4 24 24 S 5 7 30.15 1021 10 16.09344 0 0
2:55 pm 14:55 Sunny 64 18 25 -4 22 22 S 16 26 30.12 1020 10 16.09344 0 0
3:15 pm 15:15 Sunny 64 18 27 -3 24 24 S 9 15 30.12 1020 10 16.09344 0 0
3:35 pm 15:35 Sunny 64 18 27 -3 24 24 SSW 12 19 30.12 1020 10 16.09344 0 0
3:55 pm 15:55 Sunny 64 18 28 -2 26 26 S 12 19 30.09 1019 10 16.09344 0 0
4:15 pm 16:15 Sunny 64 18 28 -2 26 26 SW 9 15 30.12 1020 10 16.09344 0 0
4:35 pm 16:35 Sunny 64 18 27 -3 24 24 SW 8 13 30.09 1019 10 16.09344 0 0
4:55 pm 16:55 Partly Cloudy 64 18 28 -2 26 26 SW 6 9 30.09 1019 10 16.09344 0 0
5:15 pm 17:15 Sunny 64 18 27 -3 24 24 WSW 5 7 30.09 1019 10 16.09344 0 0
5:35 pm 17:35 Sunny 64 18 28 -2 26 26 Calm 30.09 1019 10 16.09344 0 0
5:55 pm 17:55 Sunny 64 18 28 -2 26 26 S 3 6 30.09 1019 10 16.09344 0 0
6:15 pm 18:15 Sunny 64 18 27 -3 24 24 S 5 7 30.09 1019 10 16.09344 0 0
6:35 pm 18:35 Sunny 64 18 28 -2 26 26 S 5 7 30.09 1019 10 16.09344 0 0
6:55 pm 18:55 Sunny 63 17 28 -2 27 27 Calm 30.09 1019 10 16.09344 0 0
7:15 pm 19:15 Sunny 63 17 30 -1 30 30 Calm 30.09 1019 10 16.09344 0 0
7:35 pm 19:35 Clear 61 16 30 -1 31 31 Calm 30.09 1019 10 16.09344 0 0
7:55 pm 19:55 Clear 59 15 32 0 36 36 Calm 30.09 1019 10 16.09344 0 0
8:15 pm 20:15 Clear 59 15 32 0 36 36 Calm 30.09 1019 10 16.09344 0 0
8:35 pm 20:35 Clear 59 15 32 0 36 36 Calm 30.09 1019 10 16.09344 0 0
8:55 pm 20:55 Clear 59 15 32 0 36 36 Calm 30.09 1019 10 16.09344 0 0
9:15 pm 21:15 Clear 55 13 34 1 44 44 Calm 30.09 1019 10 16.09344 0 0
9:35 pm 21:35 Clear 54 12 34 1 47 47 N 3 6 30.09 1019 10 16.09344 0 0
9:55 pm 21:55 Clear 54 12 36 2 51 51 Calm 30.09 1019 10 16.09344 0 0
10:15 pm 22:15 Clear 54 12 34 1 47 47 N 3 6 30.09 1019 10 16.09344 0 0
10:35 pm 22:35 Clear 54 12 34 1 47 47 N 3 6 30.09 1019 10 16.09344 0 0
10:55 pm 22:55 Clear 54 12 34 1 47 47 Calm 30.09 1019 10 16.09344 0 0
11:15 pm 23:15 Clear 54 12 32 0 44 44 N 5 7 30.09 1019 10 16.09344 0 0
11:35 pm 23:35 Clear 52 11 34 1 50 50 Calm 30.06 1018 10 16.09344 0 0
11:55 pm 23:55 Clear 52 11 34 1 50 50 Calm 30.09 1019 10 16.09344 0 0

Powered by AerisWeather